Time,TemperatureF,DewpointF,PressureIn,WindDirection,WindDirectionDegrees,WindSpeedMPH,WindSpeedGustMPH,Humidity,HourlyPrecipIn,Conditions,Clouds,dailyrainin,SoftwareType,DateUTC
2013-04-06 00:00:00,54.2,50.4,30.13,SE,145,2.0,5.0,87,0.00,,,-99.99,Weather View 32 v60,2013-04-06 07:00:00,
2013-04-06 00:05:00,54.3,50.5,30.13,South,175,2.0,5.0,87,0.00,,,-99.99,Weather View 32 v60,2013-04-06 07:05:00,
2013-04-06 00:10:00,54.3,50.5,30.13,SSE,167,3.0,5.0,87,0.00,,,-99.99,Weather View 32 v60,2013-04-06 07:10:00,
2013-04-06 00:15:00,54.3,50.5,30.14,SSE,156,2.0,5.0,87,0.00,,,-99.99,Weather View 32 v60,2013-04-06 07:15:00,
2013-04-06 00:20:00,54.2,50.4,30.14,SSE,165,3.0,5.0,87,0.00,,,-99.99,Weather View 32 v60,2013-04-06 07:20:00,
2013-04-06 00:25:00,54.2,50.1,30.14,SW,224,2.0,5.0,86,0.00,,,-99.99,Weather View 32 v60,2013-04-06 07:25:00,
2013-04-06 00:30:00,54.1,50.3,30.14,SSE,166,2.0,5.0,87,0.00,,,-99.99,Weather View 32 v60,2013-04-06 07:30:00,
2013-04-06 00:35:00,54.1,50.3,30.14,SE,146,1.0,5.0,87,0.00,,,-99.99,Weather View 32 v60,2013-04-06 07:35:00,
2013-04-06 00:40:00,54.0,50.2,30.14,SE,144,1.0,5.0,87,0.00,,,-99.99,Weather View 32 v60,2013-04-06 07:40:00,
2013-04-06 00:45:00,54.0,50.2,30.14,SE,143,1.0,4.0,87,0.00,,,-99.99,Weather View 32 v60,2013-04-06 07:45:00,
2013-04-06 00:50:00,54.0,50.2,30.14,SE,143,2.0,4.0,87,0.00,,,-99.99,Weather View 32 v60,2013-04-06 07:50:00,
2013-04-06 00:55:00,54.0,50.2,30.13,SE,136,2.0,4.0,87,0.00,,,-99.99,Weather View 32 v60,2013-04-06 07:55:00,
2013-04-06 01:00:00,54.1,50.3,30.13,SE,138,2.0,4.0,87,0.00,,,-99.99,Weather View 32 v60,2013-04-06 08:00:00,
2013-04-06 01:05:00,54.1,50.3,30.13,SE,126,2.0,4.0,87,0.00,,,-99.99,Weather View 32 v60,2013-04-06 08:05:00,
2013-04-06 01:15:00,54.1,50.3,30.12,SE,142,2.0,4.0,87,0.00,,,-99.99,Weather View 32 v60,2013-04-06 08:15:00,
2013-04-06 01:20:00,54.1,50.3,30.12,SE,136,2.0,4.0,87,0.00,,,-99.99,Weather View 32 v60,2013-04-06 08:20:00,
2013-04-06 01:40:00,53.8,50.0,30.12,SSW,209,2.0,3.0,87,0.00,,,-99.99,Weather View 32 v60,2013-04-06 08:40:00,
2013-04-06 01:45:00,53.7,49.9,30.12,SSE,153,1.0,3.0,87,0.00,,,-99.99,Weather View 32 v60,2013-04-06 08:45:00,
2013-04-06 01:55:00,53.6,50.1,30.11,ESE,102,2.0,3.0,88,0.00,,,-99.99,Weather View 32 v60,2013-04-06 08:55:00,
2013-04-06 02:00:00,53.6,50.1,30.11,SSW,211,2.0,3.0,88,0.00,,,-99.99,Weather View 32 v60,2013-04-06 09:00:00,
2013-04-06 02:10:00,53.6,50.1,30.12,SE,135,2.0,4.0,88,0.00,,,-99.99,Weather View 32 v60,2013-04-06 09:10:00,
2013-04-06 02:13:00,54.1,50.3,30.13,East,98,1.0,4.0,87,0.00,,,-99.99,Weather View 32 v60,2013-04-06 09:13:00,
2013-04-06 02:20:00,53.6,50.1,30.11,SSE,163,2.0,4.0,88,0.00,,,-99.99,Weather View 32 v60,2013-04-06 09:20:00,
2013-04-06 02:25:00,53.5,50.0,30.11,SSE,149,2.0,4.0,88,0.00,,,-99.99,Weather View 32 v60,2013-04-06 09:25:00,
2013-04-06 02:28:00,54.0,50.2,30.12,SE,129,2.0,4.0,87,0.00,,,-99.99,Weather View 32 v60,2013-04-06 09:28:00,
2013-04-06 02:30:00,53.5,50.0,30.11,SE,126,2.0,4.0,88,0.00,,,-99.99,Weather View 32 v60,2013-04-06 09:30:00,
2013-04-06 02:33:00,54.0,50.2,30.12,SSE,162,1.0,3.0,87,0.00,,,-99.99,Weather View 32 v60,2013-04-06 09:33:00,
2013-04-06 02:35:00,53.4,49.9,30.11,SE,129,2.0,4.0,88,0.00,,,-99.99,Weather View 32 v60,2013-04-06 09:35:00,
2013-04-06 02:38:00,53.9,50.1,30.12,SSW,212,2.0,3.0,87,0.00,,,-99.99,Weather View 32 v60,2013-04-06 09:38:00,
2013-04-06 02:40:00,53.4,49.9,30.11,SE,124,2.0,4.0,88,0.00,,,-99.99,Weather View 32 v60,2013-04-06 09:40:00,
2013-04-06 02:50:00,53.4,50.2,30.11,ESE,105,4.0,4.0,89,0.00,,,-99.99,Weather View 32 v60,2013-04-06 09:50:00,
2013-04-06 02:53:00,53.7,49.9,30.12,SSE,152,1.0,3.0,87,0.00,,,-99.99,Weather View 32 v60,2013-04-06 09:53:00,
2013-04-06 02:55:00,53.3,50.1,30.11,East,90,2.0,4.0,89,0.00,,,-99.99,Weather View 32 v60,2013-04-06 09:55:00,
2013-04-06 03:00:00,53.3,50.1,30.11,East,98,1.0,4.0,89,0.00,,,-99.99,Weather View 32 v60,2013-04-06 10:00:00,
2013-04-06 03:05:00,53.3,50.1,30.11,ESE,113,1.0,4.0,89,0.00,,,-99.99,Weather View 32 v60,2013-04-06 10:05:00,
2013-04-06 03:08:00,53.6,50.1,30.11,SE,131,1.0,3.0,88,0.00,,,-99.99,Weather View 32 v60,2013-04-06 10:08:00,
2013-04-06 03:10:00,53.2,50.0,30.11,East,80,2.0,4.0,89,0.00,,,-99.99,Weather View 32 v60,2013-04-06 10:10:00,
2013-04-06 03:18:00,53.6,50.1,30.11,ESE,119,2.0,4.0,88,0.00,,,-99.99,Weather View 32 v60,2013-04-06 10:18:00,
2013-04-06 03:20:00,53.3,50.1,30.11,ESE,121,2.0,4.0,89,0.00,,,-99.99,Weather View 32 v60,2013-04-06 10:20:00,
2013-04-06 03:48:00,53.4,50.2,30.11,SE,137,2.0,4.0,89,0.00,,,-99.99,Weather View 32 v60,2013-04-06 10:48:00,
2013-04-06 03:50:00,53.4,50.5,30.11,SE,127,2.0,5.0,90,0.00,,,-99.99,Weather View 32 v60,2013-04-06 10:50:00,
2013-04-06 03:55:00,53.4,50.5,30.11,ESE,114,2.0,5.0,90,0.00,,,-99.99,Weather View 32 v60,2013-04-06 10:55:00,
2013-04-06 04:00:00,53.5,50.6,30.11,SSE,159,2.0,5.0,90,0.00,,,-99.99,Weather View 32 v60,2013-04-06 11:00:00,
2013-04-06 04:15:00,53.6,50.7,30.11,SE,135,2.0,5.0,90,0.00,,,-99.99,Weather View 32 v60,2013-04-06 11:15:00,
2013-04-06 04:18:00,53.3,50.1,30.11,SE,131,2.0,4.0,89,0.00,,,-99.99,Weather View 32 v60,2013-04-06 11:18:00,
2013-04-06 04:25:00,53.6,50.7,30.11,East,100,2.0,5.0,90,0.00,,,-99.99,Weather View 32 v60,2013-04-06 11:25:00,
2013-04-06 04:28:00,53.3,50.1,30.11,SE,145,2.0,5.0,89,0.00,,,-99.99,Weather View 32 v60,2013-04-06 11:28:00,
2013-04-06 04:30:00,53.6,50.7,30.11,ESE,121,3.0,5.0,90,0.00,,,-99.99,Weather View 32 v60,2013-04-06 11:30:00,
2013-04-06 04:33:00,53.3,50.1,30.11,ESE,103,1.0,5.0,89,0.00,,,-99.99,Weather View 32 v60,2013-04-06 11:33:00,
2013-04-06 04:35:00,53.7,50.8,30.11,SSE,149,2.0,5.0,90,0.00,,,-99.99,Weather View 32 v60,2013-04-06 11:35:00,
2013-04-06 04:38:00,53.4,50.5,30.12,SE,135,1.0,5.0,90,0.00,,,-99.99,Weather View 32 v60,2013-04-06 11:38:00,
2013-04-06 04:40:00,53.7,50.8,30.11,SE,135,2.0,5.0,90,0.00,,,-99.99,Weather View 32 v60,2013-04-06 11:40:00,
2013-04-06 04:43:00,53.4,50.5,30.11,ESE,117,3.0,5.0,90,0.00,,,-99.99,Weather View 32 v60,2013-04-06 11:43:00,
2013-04-06 04:48:00,53.4,50.5,30.11,SE,136,4.0,5.0,90,0.00,,,-99.99,Weather View 32 v60,2013-04-06 11:48:00,
2013-04-06 04:50:00,53.7,50.8,30.11,ESE,110,3.0,5.0,90,0.00,,,-99.99,Weather View 32 v60,2013-04-06 11:50:00,
2013-04-06 04:55:00,53.8,50.6,30.11,ESE,113,2.0,5.0,89,0.00,,,-99.99,Weather View 32 v60,2013-04-06 11:55:00,
2013-04-06 05:00:00,53.7,50.5,30.11,ESE,118,3.0,6.0,89,0.00,,,-99.99,Weather View 32 v60,2013-04-06 12:00:00,
2013-04-06 05:05:00,53.8,50.6,30.11,SE,127,3.0,6.0,89,0.00,,,-99.99,Weather View 32 v60,2013-04-06 12:05:00,
2013-04-06 05:08:00,53.5,50.6,30.11,SE,134,2.0,5.0,90,0.00,,,-99.99,Weather View 32 v60,2013-04-06 12:08:00,
2013-04-06 05:13:00,53.5,50.6,30.11,ESE,105,2.0,5.0,90,0.00,,,-99.99,Weather View 32 v60,2013-04-06 12:13:00,
2013-04-06 05:15:00,53.8,50.6,30.12,ESE,110,1.0,6.0,89,0.00,,,-99.99,Weather View 32 v60,2013-04-06 12:15:00,
2013-04-06 05:20:00,53.9,50.7,30.12,East,85,4.0,6.0,89,0.00,,,-99.99,Weather View 32 v60,2013-04-06 12:20:00,
2013-04-06 05:23:00,53.5,50.6,30.11,SE,142,2.0,5.0,90,0.00,,,-99.99,Weather View 32 v60,2013-04-06 12:23:00,
2013-04-06 05:30:00,54.0,50.8,30.12,SE,129,2.0,6.0,89,0.00,,,-99.99,Weather View 32 v60,2013-04-06 12:30:00,
2013-04-06 05:35:00,54.0,50.8,30.12,East,96,1.0,6.0,89,0.00,,,-99.99,Weather View 32 v60,2013-04-06 12:35:00,
2013-04-06 05:40:00,54.0,50.8,30.12,East,100,2.0,6.0,89,0.00,,,-99.99,Weather View 32 v60,2013-04-06 12:40:00,
2013-04-06 05:45:00,54.0,50.8,30.12,ESE,112,2.0,6.0,89,0.00,,,-99.99,Weather View 32 v60,2013-04-06 12:45:00,
2013-04-06 05:48:00,53.7,50.8,30.11,SE,129,2.0,5.0,90,0.00,,,-99.99,Weather View 32 v60,2013-04-06 12:48:00,
2013-04-06 05:50:00,54.1,50.9,30.12,ESE,113,2.0,6.0,89,0.00,,,-99.99,Weather View 32 v60,2013-04-06 12:50:00,
2013-04-06 05:55:00,54.1,50.9,30.12,ESE,104,1.0,6.0,89,0.00,,,-99.99,Weather View 32 v60,2013-04-06 12:55:00,
2013-04-06 06:00:00,54.2,51.0,30.12,ESE,106,1.0,5.0,89,0.00,,,-99.99,Weather View 32 v60,2013-04-06 13:00:00,
2013-04-06 06:05:00,53.7,50.5,30.11,ESE,118,3.0,6.0,89,0.00,,,-99.99,Weather View 32 v60,2013-04-06 13:05:00,
2013-04-06 06:10:00,54.2,51.0,30.12,SE,129,3.0,4.0,89,0.00,,,-99.99,Weather View 32 v60,2013-04-06 13:10:00,
2013-04-06 06:13:00,53.8,50.6,30.11,ESE,111,2.0,6.0,89,0.00,,,-99.99,Weather View 32 v60,2013-04-06 13:13:00,
2013-04-06 06:20:00,54.1,50.9,30.12,SE,125,2.0,5.0,89,0.00,,,-99.99,Weather View 32 v60,2013-04-06 13:20:00,
2013-04-06 06:28:00,54.0,50.8,30.12,East,93,1.0,6.0,89,0.00,,,-99.99,Weather View 32 v60,2013-04-06 13:28:00,
2013-04-06 06:30:00,54.3,51.4,30.12,SE,130,1.0,5.0,90,0.00,,,-99.99,Weather View 32 v60,2013-04-06 13:30:00,
2013-04-06 06:35:00,54.3,51.4,30.12,ESE,113,1.0,5.0,90,0.00,,,-99.99,Weather View 32 v60,2013-04-06 13:35:00,
2013-04-06 06:40:00,54.4,51.5,30.12,SE,132,1.0,5.0,90,0.00,,,-99.99,Weather View 32 v60,2013-04-06 13:40:00,
2013-04-06 06:45:00,54.3,51.4,30.13,SE,145,1.0,5.0,90,0.00,,,-99.99,Weather View 32 v60,2013-04-06 13:45:00,
2013-04-06 06:55:00,54.2,51.3,30.13,ESE,114,2.0,5.0,90,0.00,,,-99.99,Weather View 32 v60,2013-04-06 13:55:00,
2013-04-06 07:00:00,54.3,51.7,30.13,ENE,69,2.0,5.0,91,0.00,,,-99.99,Weather View 32 v60,2013-04-06 14:00:00,
2013-04-06 07:05:00,54.4,51.8,30.13,East,94,1.0,5.0,91,0.00,,,-99.99,Weather View 32 v60,2013-04-06 14:05:00,
2013-04-06 07:10:00,54.4,51.8,30.13,SSE,150,2.0,5.0,91,0.00,,,-99.99,Weather View 32 v60,2013-04-06 14:10:00,
2013-04-06 07:15:00,54.5,51.9,30.13,ENE,64,2.0,5.0,91,0.00,,,-99.99,Weather View 32 v60,2013-04-06 14:15:00,
2013-04-06 07:18:00,54.2,51.0,30.12,ESE,122,3.0,5.0,89,0.00,,,-99.99,Weather View 32 v60,2013-04-06 14:18:00,
2013-04-06 07:20:00,54.4,51.8,30.14,ESE,118,2.0,5.0,91,0.00,,,-99.99,Weather View 32 v60,2013-04-06 14:20:00,
2013-04-06 07:25:00,54.2,51.6,30.14,East,98,3.0,5.0,91,0.00,,,-99.99,Weather View 32 v60,2013-04-06 14:25:00,
2013-04-06 07:28:00,54.1,50.9,30.12,SE,134,4.0,5.0,89,0.00,,,-99.99,Weather View 32 v60,2013-04-06 14:28:00,
2013-04-06 07:35:00,54.5,51.9,30.14,East,87,2.0,4.0,91,0.00,,,-99.99,Weather View 32 v60,2013-04-06 14:35:00,
2013-04-06 08:00:00,55.3,52.7,30.14,NE,49,1.0,4.0,91,0.01,,,-99.99,Weather View 32 v60,2013-04-06 15:00:00,
2013-04-06 08:03:00,54.3,51.7,30.13,ENE,69,2.0,5.0,91,0.00,,,-99.99,Weather View 32 v60,2013-04-06 15:03:00,
2013-04-06 08:15:00,55.7,53.4,30.13,NNE,33,1.0,4.0,92,0.01,,,-99.99,Weather View 32 v60,2013-04-06 15:15:00,
2013-04-06 08:25:00,55.8,53.5,30.13,NE,35,1.0,3.0,92,0.02,,,-99.99,Weather View 32 v60,2013-04-06 15:25:00,
2013-04-06 08:33:00,54.3,51.7,30.14,ESE,109,2.0,4.0,91,0.00,,,-99.99,Weather View 32 v60,2013-04-06 15:33:00,
2013-04-06 08:40:00,55.7,53.1,30.13,East,98,2.0,3.0,91,0.02,,,-99.99,Weather View 32 v60,2013-04-06 15:40:00,
2013-04-06 08:43:00,54.5,51.9,30.14,ESE,109,1.0,4.0,91,0.00,,,-99.99,Weather View 32 v60,2013-04-06 15:43:00,
2013-04-06 08:45:00,55.6,53.3,30.13,ESE,107,1.0,3.0,92,0.02,,,-99.99,Weather View 32 v60,2013-04-06 15:45:00,
2013-04-06 08:48:00,54.8,52.2,30.14,ENE,67,0.0,4.0,91,0.00,,,-99.99,Weather View 32 v60,2013-04-06 15:48:00,
2013-04-06 08:50:00,55.8,53.5,30.13,East,84,2.0,3.0,92,0.02,,,-99.99,Weather View 32 v60,2013-04-06 15:50:00,
2013-04-06 08:53:00,55.0,52.4,30.14,ENE,68,3.0,4.0,91,0.00,,,-99.99,Weather View 32 v60,2013-04-06 15:53:00,
2013-04-06 08:55:00,56.1,53.8,30.13,NE,50,2.0,3.0,92,0.02,,,-99.99,Weather View 32 v60,2013-04-06 15:55:00,
2013-04-06 08:58:00,55.1,52.5,30.14,ENE,67,1.0,4.0,91,0.00,,,-99.99,Weather View 32 v60,2013-04-06 15:58:00,
2013-04-06 09:00:00,56.0,53.7,30.13,ESE,107,2.0,4.0,92,0.01,,,-99.99,Weather View 32 v60,2013-04-06 16:00:00,
2013-04-06 09:08:00,55.5,52.9,30.13,NNE,18,1.0,4.0,91,0.01,,,-99.99,Weather View 32 v60,2013-04-06 16:08:00,
2013-04-06 09:10:00,56.3,54.0,30.13,ESE,121,1.0,4.0,92,0.02,,,-99.99,Weather View 32 v60,2013-04-06 16:10:00,
2013-04-06 09:13:00,55.6,53.0,30.13,NNE,25,1.0,4.0,91,0.01,,,-99.99,Weather View 32 v60,2013-04-06 16:13:00,
2013-04-06 09:23:00,55.7,53.4,30.13,NE,38,1.0,4.0,92,0.01,,,-99.99,Weather View 32 v60,2013-04-06 16:23:00,
2013-04-06 09:25:00,57.0,54.4,30.13,SW,225,1.0,5.0,91,0.01,,,-99.99,Weather View 32 v60,2013-04-06 16:25:00,
2013-04-06 09:30:00,57.2,54.6,30.13,SSW,206,2.0,5.0,91,0.01,,,-99.99,Weather View 32 v60,2013-04-06 16:30:00,
2013-04-06 09:33:00,56.0,53.7,30.13,NNE,25,1.0,3.0,92,0.02,,,-99.99,Weather View 32 v60,2013-04-06 16:33:00,
2013-04-06 09:35:00,57.6,54.7,30.13,SW,229,2.0,5.0,90,0.01,,,-99.99,Weather View 32 v60,2013-04-06 16:35:00,
2013-04-06 09:38:00,55.9,53.6,30.13,NE,43,1.0,3.0,92,0.02,,,-99.99,Weather View 32 v60,2013-04-06 16:38:00,
2013-04-06 09:50:00,59.7,56.1,30.14,NNW,337,0.0,5.0,88,0.01,,,-99.99,Weather View 32 v60,2013-04-06 16:50:00,
2013-04-06 10:00:00,61.2,56.0,30.14,NNE,20,0.0,5.0,83,0.01,,,-99.99,Weather View 32 v60,2013-04-06 17:00:00,
2013-04-06 10:05:00,62.1,56.2,30.14,WNW,291,2.0,5.0,81,0.00,,,-99.99,Weather View 32 v60,2013-04-06 17:05:00,
2013-04-06 10:08:00,56.2,53.9,30.13,SSE,162,2.0,4.0,92,0.02,,,-99.99,Weather View 32 v60,2013-04-06 17:08:00,
2013-04-06 10:10:00,61.2,54.6,30.14,West,263,4.0,8.0,79,0.00,,,-99.99,Weather View 32 v60,2013-04-06 17:10:00,
2013-04-06 10:15:00,60.0,53.8,30.15,WNW,290,3.0,8.0,80,0.00,,,-99.99,Weather View 32 v60,2013-04-06 17:15:00,
2013-04-06 10:18:00,57.0,54.7,30.13,ESE,119,2.0,4.0,92,0.02,,,-99.99,Weather View 32 v60,2013-04-06 17:18:00,
2013-04-06 10:23:00,56.7,54.4,30.13,ESE,116,1.0,4.0,92,0.02,,,-99.99,Weather View 32 v60,2013-04-06 17:23:00,
2013-04-06 10:30:00,61.1,54.2,30.15,WSW,246,1.0,8.0,78,0.00,,,-99.99,Weather View 32 v60,2013-04-06 17:30:00,
2013-04-06 10:43:00,58.0,55.1,30.14,West,273,1.0,5.0,90,0.01,,,-99.99,Weather View 32 v60,2013-04-06 17:43:00,
2013-04-06 10:45:00,63.4,53.4,30.14,West,263,3.0,8.0,70,0.00,,,-99.99,Weather View 32 v60,2013-04-06 17:45:00,
2013-04-06 10:55:00,62.3,53.1,30.13,NW,305,4.0,8.0,72,0.00,,,-99.99,Weather View 32 v60,2013-04-06 17:55:00,
2013-04-06 10:58:00,60.1,55.6,30.14,West,269,2.0,5.0,85,0.01,,,-99.99,Weather View 32 v60,2013-04-06 17:58:00,
2013-04-06 11:10:00,64.8,53.6,30.14,NNW,345,1.0,8.0,67,0.00,,,-99.99,Weather View 32 v60,2013-04-06 18:10:00,
2013-04-06 11:15:00,65.9,53.3,30.14,WSW,250,2.0,8.0,64,0.00,,,-99.99,Weather View 32 v60,2013-04-06 18:15:00,
2013-04-06 11:20:00,65.5,52.1,30.13,South,171,2.0,8.0,62,0.00,,,-99.99,Weather View 32 v60,2013-04-06 18:20:00,
2013-04-06 11:25:00,65.7,52.7,30.12,SE,127,1.0,8.0,63,0.00,,,-99.99,Weather View 32 v60,2013-04-06 18:25:00,
2013-04-06 11:28:00,60.4,53.8,30.15,NW,325,2.0,8.0,79,0.00,,,-99.99,Weather View 32 v60,2013-04-06 18:28:00,
2013-04-06 11:43:00,63.1,54.7,30.14,West,268,2.0,8.0,74,0.00,,,-99.99,Weather View 32 v60,2013-04-06 18:43:00,
2013-04-06 11:50:00,67.8,52.0,30.11,NNE,24,2.0,8.0,57,0.00,,,-99.99,Weather View 32 v60,2013-04-06 18:50:00,
2013-04-06 11:53:00,62.2,52.7,30.14,West,270,1.0,8.0,71,0.00,,,-99.99,Weather View 32 v60,2013-04-06 18:53:00,
2013-04-06 12:00:00,68.2,52.8,30.11,NE,41,1.0,7.0,58,0.00,,,-99.99,Weather View 32 v60,2013-04-06 19:00:00,
2013-04-06 12:03:00,61.9,52.8,30.14,West,271,2.0,8.0,72,0.00,,,-99.99,Weather View 32 v60,2013-04-06 19:03:00,
2013-04-06 12:05:00,69.0,53.1,30.11,NNE,26,1.0,7.0,57,0.00,,,-99.99,Weather View 32 v60,2013-04-06 19:05:00,
2013-04-06 12:09:00,62.9,53.7,30.14,NW,310,2.0,8.0,72,0.00,,,-99.99,Weather View 32 v60,2013-04-06 19:09:00,
2013-04-06 12:15:00,68.6,51.7,30.10,WSW,253,4.0,7.0,55,0.00,,,-99.99,Weather View 32 v60,2013-04-06 19:15:00,
2013-04-06 12:20:00,68.8,52.4,30.10,West,272,2.0,8.0,56,0.00,,,-99.99,Weather View 32 v60,2013-04-06 19:20:00,
2013-04-06 12:33:00,65.5,52.5,30.12,NW,319,2.0,8.0,63,0.00,,,-99.99,Weather View 32 v60,2013-04-06 19:33:00,
2013-04-06 12:35:00,67.8,51.5,30.10,SE,129,3.0,11.0,56,0.00,,,-99.99,Weather View 32 v60,2013-04-06 19:35:00,
2013-04-06 12:40:00,69.1,51.7,30.10,WNW,296,4.0,11.0,54,0.00,,,-99.99,Weather View 32 v60,2013-04-06 19:40:00,
2013-04-06 12:43:00,67.8,52.4,30.12,NW,304,6.0,8.0,58,0.00,,,-99.99,Weather View 32 v60,2013-04-06 19:43:00,
2013-04-06 12:48:00,67.2,52.3,30.12,WNW,298,2.0,8.0,59,0.00,,,-99.99,Weather View 32 v60,2013-04-06 19:48:00,
2013-04-06 12:50:00,68.1,51.3,30.09,SSE,148,5.0,11.0,55,0.00,,,-99.99,Weather View 32 v60,2013-04-06 19:50:00,
2013-04-06 12:58:00,67.9,52.5,30.11,North,11,2.0,8.0,58,0.00,,,-99.99,Weather View 32 v60,2013-04-06 19:58:00,
2013-04-06 13:00:00,67.7,50.4,30.09,SSE,164,8.0,11.0,54,0.00,,,-99.99,Weather View 32 v60,2013-04-06 20:00:00,
2013-04-06 13:05:00,67.4,50.1,30.09,SW,228,8.0,11.0,54,0.00,,,-99.99,Weather View 32 v60,2013-04-06 20:05:00,
2013-04-06 13:09:00,69.0,53.1,30.11,NNE,26,1.0,7.0,57,0.00,,,-99.99,Weather View 32 v60,2013-04-06 20:09:00,
2013-04-06 13:10:00,67.5,51.2,30.09,NW,315,3.0,11.0,56,0.00,,,-99.99,Weather View 32 v60,2013-04-06 20:10:00,
2013-04-06 13:20:00,67.6,50.8,30.08,WSW,242,2.0,11.0,55,0.00,,,-99.99,Weather View 32 v60,2013-04-06 20:20:00,
2013-04-06 13:28:00,66.9,50.7,30.10,SSW,211,5.0,11.0,56,0.00,,,-99.99,Weather View 32 v60,2013-04-06 20:28:00,
2013-04-06 13:33:00,67.1,51.3,30.10,SSW,208,7.0,11.0,57,0.00,,,-99.99,Weather View 32 v60,2013-04-06 20:33:00,
2013-04-06 13:40:00,66.8,53.3,30.09,SSW,205,11.0,16.0,62,0.00,,,-99.99,Weather View 32 v60,2013-04-06 20:40:00,
2013-04-06 13:45:00,66.4,53.8,30.08,SSE,162,12.0,16.0,64,0.00,,,-99.99,Weather View 32 v60,2013-04-06 20:45:00,
2013-04-06 13:48:00,68.2,50.9,30.09,SE,141,5.0,11.0,54,0.00,,,-99.99,Weather View 32 v60,2013-04-06 20:48:00,
2013-04-06 13:50:00,66.0,53.9,30.09,SSE,162,10.0,16.0,65,0.00,,,-99.99,Weather View 32 v60,2013-04-06 20:50:00,
2013-04-06 13:55:00,65.6,53.5,30.09,SE,141,8.0,16.0,65,0.00,,,-99.99,Weather View 32 v60,2013-04-06 20:55:00,
2013-04-06 13:58:00,68.3,51.0,30.09,South,172,8.0,11.0,54,0.00,,,-99.99,Weather View 32 v60,2013-04-06 20:58:00,
2013-04-06 14:00:00,65.6,53.5,30.09,SSE,155,5.0,16.0,65,0.00,,,-99.99,Weather View 32 v60,2013-04-06 21:00:00,
2013-04-06 14:05:00,66.2,54.1,30.08,SE,142,6.0,16.0,65,0.00,,,-99.99,Weather View 32 v60,2013-04-06 21:05:00,
2013-04-06 14:10:00,67.4,50.1,30.09,SW,228,8.0,11.0,54,0.00,,,-99.99,Weather View 32 v60,2013-04-06 21:10:00,
2013-04-06 14:18:00,68.1,51.3,30.09,SE,133,3.0,11.0,55,0.00,,,-99.99,Weather View 32 v60,2013-04-06 21:18:00,
2013-04-06 14:20:00,66.1,54.0,30.08,West,280,8.0,16.0,65,0.00,,,-99.99,Weather View 32 v60,2013-04-06 21:20:00,
2013-04-06 14:28:00,67.9,51.1,30.08,East,97,2.0,11.0,55,0.00,,,-99.99,Weather View 32 v60,2013-04-06 21:28:00,
2013-04-06 14:30:00,65.5,53.4,30.08,South,172,7.0,17.0,65,0.00,,,-99.99,Weather View 32 v60,2013-04-06 21:30:00,
2013-04-06 14:33:00,67.4,50.6,30.09,SE,135,4.0,11.0,55,0.00,,,-99.99,Weather View 32 v60,2013-04-06 21:33:00,
2013-04-06 14:38:00,66.9,51.6,30.09,SSE,165,9.0,13.0,58,0.00,,,-99.99,Weather View 32 v60,2013-04-06 21:38:00,
2013-04-06 14:45:00,67.4,52.1,30.07,South,174,4.0,17.0,58,0.00,,,-99.99,Weather View 32 v60,2013-04-06 21:45:00,
2013-04-06 14:50:00,67.7,51.4,30.07,SSW,204,11.0,17.0,56,0.00,,,-99.99,Weather View 32 v60,2013-04-06 21:50:00,
2013-04-06 14:55:00,68.0,51.2,30.07,SW,216,3.0,17.0,55,0.00,,,-99.99,Weather View 32 v60,2013-04-06 21:55:00,
2013-04-06 15:18:00,66.1,54.0,30.08,South,169,8.0,16.0,65,0.00,,,-99.99,Weather View 32 v60,2013-04-06 22:18:00,
2013-04-06 15:28:00,65.7,53.6,30.08,East,86,6.0,16.0,65,0.00,,,-99.99,Weather View 32 v60,2013-04-06 22:28:00,
2013-04-06 15:38:00,65.4,53.3,30.08,SE,125,4.0,17.0,65,0.00,,,-99.99,Weather View 32 v60,2013-04-06 22:38:00,
2013-04-06 15:43:00,66.0,52.6,30.07,SSE,152,4.0,17.0,62,0.00,,,-99.99,Weather View 32 v60,2013-04-06 22:43:00,
2013-04-06 16:00:00,66.8,49.1,30.06,West,276,10.0,19.0,53,0.00,,,-99.99,Weather View 32 v60,2013-04-06 23:00:00,
2013-04-06 16:03:00,68.0,50.7,30.07,South,173,3.0,17.0,54,0.00,,,-99.99,Weather View 32 v60,2013-04-06 23:03:00,
2013-04-06 16:13:00,67.6,50.8,30.07,SW,220,5.0,17.0,55,0.00,,,-99.99,Weather View 32 v60,2013-04-06 23:13:00,
2013-04-06 16:23:00,67.6,50.3,30.06,SW,224,8.0,17.0,54,0.00,,,-99.99,Weather View 32 v60,2013-04-06 23:23:00,
2013-04-06 16:28:00,67.8,50.5,30.06,SW,223,8.0,17.0,54,0.00,,,-99.99,Weather View 32 v60,2013-04-06 23:28:00,
2013-04-06 16:33:00,67.6,50.3,30.06,SW,236,2.0,16.0,54,0.00,,,-99.99,Weather View 32 v60,2013-04-06 23:33:00,
2013-04-06 16:43:00,67.6,49.3,30.06,WSW,240,11.0,17.0,52,0.00,,,-99.99,Weather View 32 v60,2013-04-06 23:43:00,
2013-04-06 16:48:00,67.4,49.1,30.06,SW,219,8.0,17.0,52,0.00,,,-99.99,Weather View 32 v60,2013-04-06 23:48:00,
2013-04-06 16:53:00,67.2,49.4,30.06,SW,232,5.0,19.0,53,0.00,,,-99.99,Weather View 32 v60,2013-04-06 23:53:00,
2013-04-06 16:58:00,66.9,48.7,30.06,SW,227,10.0,19.0,52,0.00,,,-99.99,Weather View 32 v60,2013-04-06 23:58:00,
2013-04-06 17:05:00,64.9,48.3,30.07,West,269,5.0,14.0,55,0.00,,,-99.99,Weather View 32 v60,2013-04-07 00:05:00,
2013-04-06 17:08:00,66.8,49.1,30.06,WSW,245,9.0,19.0,53,0.00,,,-99.99,Weather View 32 v60,2013-04-07 00:08:00,
2013-04-06 17:10:00,64.8,48.7,30.07,SSE,160,7.0,14.0,56,0.00,,,-99.99,Weather View 32 v60,2013-04-07 00:10:00,
2013-04-06 17:13:00,66.4,49.2,30.06,SW,219,5.0,19.0,54,0.00,,,-99.99,Weather View 32 v60,2013-04-07 00:13:00,
2013-04-06 17:15:00,64.0,48.9,30.06,SW,227,4.0,14.0,58,0.00,,,-99.99,Weather View 32 v60,2013-04-07 00:15:00,
2013-04-06 17:23:00,66.2,49.0,30.06,West,267,7.0,19.0,54,0.00,,,-99.99,Weather View 32 v60,2013-04-07 00:23:00,
2013-04-06 17:28:00,65.9,48.7,30.06,SW,220,7.0,19.0,54,0.00,,,-99.99,Weather View 32 v60,2013-04-07 00:28:00,
2013-04-06 17:33:00,65.8,49.1,30.06,SW,234,4.0,19.0,55,0.00,,,-99.99,Weather View 32 v60,2013-04-07 00:33:00,
2013-04-06 17:43:00,65.8,49.1,30.06,SW,218,8.0,19.0,55,0.00,,,-99.99,Weather View 32 v60,2013-04-07 00:43:00,
2013-04-06 17:50:00,60.9,49.0,30.07,SSE,150,5.0,13.0,65,0.00,,,-99.99,Weather View 32 v60,2013-04-07 00:50:00,
2013-04-06 17:53:00,65.4,48.8,30.06,WSW,253,4.0,17.0,55,0.00,,,-99.99,Weather View 32 v60,2013-04-07 00:53:00,
2013-04-06 17:55:00,60.7,48.8,30.08,SSE,166,3.0,13.0,65,0.00,,,-99.99,Weather View 32 v60,2013-04-07 00:55:00,
2013-04-06 17:58:00,65.2,49.1,30.07,SW,229,6.0,17.0,56,0.00,,,-99.99,Weather View 32 v60,2013-04-07 00:58:00,
2013-04-06 18:03:00,65.2,48.6,30.07,NNW,336,4.0,17.0,55,0.00,,,-99.99,Weather View 32 v60,2013-04-07 01:03:00,
2013-04-06 18:05:00,60.4,49.0,30.08,South,174,6.0,13.0,66,0.00,,,-99.99,Weather View 32 v60,2013-04-07 01:05:00,
2013-04-06 18:08:00,64.9,48.3,30.07,West,269,5.0,14.0,55,0.00,,,-99.99,Weather View 32 v60,2013-04-07 01:08:00,
2013-04-06 18:10:00,60.3,48.9,30.08,SSE,159,6.0,13.0,66,0.00,,,-99.99,Weather View 32 v60,2013-04-07 01:10:00,
2013-04-06 18:23:00,63.3,49.1,30.07,SW,230,5.0,14.0,60,0.00,,,-99.99,Weather View 32 v60,2013-04-07 01:23:00,
2013-04-06 18:28:00,62.8,49.1,30.07,SSW,204,4.0,13.0,61,0.00,,,-99.99,Weather View 32 v60,2013-04-07 01:28:00,
2013-04-06 18:30:00,58.0,50.1,30.07,SSE,154,11.0,14.0,75,0.00,,,-99.99,Weather View 32 v60,2013-04-07 01:30:00,
2013-04-06 18:33:00,62.4,49.2,30.07,NE,55,3.0,13.0,62,0.00,,,-99.99,Weather View 32 v60,2013-04-07 01:33:00,
2013-04-06 18:38:00,61.7,48.9,30.07,SSE,167,6.0,13.0,63,0.00,,,-99.99,Weather View 32 v60,2013-04-07 01:38:00,
2013-04-06 18:43:00,61.2,48.9,30.07,South,179,4.0,13.0,64,0.00,,,-99.99,Weather View 32 v60,2013-04-07 01:43:00,
2013-04-06 18:55:00,56.4,50.0,30.07,SE,141,7.0,14.0,79,0.00,,,-99.99,Weather View 32 v60,2013-04-07 01:55:00,
2013-04-06 19:00:00,56.1,50.0,30.08,SE,133,10.0,14.0,80,0.00,,,-99.99,Weather View 32 v60,2013-04-07 02:00:00,
2013-04-06 19:03:00,60.6,48.7,30.08,SSE,156,6.0,13.0,65,0.00,,,-99.99,Weather View 32 v60,2013-04-07 02:03:00,
2013-04-06 19:05:00,55.9,49.8,30.08,SE,141,7.0,14.0,80,0.00,,,-99.99,Weather View 32 v60,2013-04-07 02:05:00,
2013-04-06 19:08:00,60.4,49.0,30.08,South,174,6.0,13.0,66,0.00,,,-99.99,Weather View 32 v60,2013-04-07 02:08:00,
2013-04-06 19:10:00,55.6,49.8,30.08,SE,133,5.0,14.0,81,0.00,,,-99.99,Weather View 32 v60,2013-04-07 02:10:00,
2013-04-06 19:18:00,60.2,48.8,30.08,SE,145,5.0,12.0,66,0.00,,,-99.99,Weather View 32 v60,2013-04-07 02:18:00,
2013-04-06 19:20:00,55.0,49.9,30.09,ESE,116,5.0,14.0,83,0.00,,,-99.99,Weather View 32 v60,2013-04-07 02:20:00,
2013-04-06 19:23:00,59.3,49.9,30.08,SE,131,6.0,14.0,71,0.00,,,-99.99,Weather View 32 v60,2013-04-07 02:23:00,
2013-04-06 19:35:00,54.4,49.7,30.09,ESE,103,4.0,15.0,84,0.00,,,-99.99,Weather View 32 v60,2013-04-07 02:35:00,
2013-04-06 19:38:00,57.5,50.3,30.07,SE,128,12.0,14.0,77,0.00,,,-99.99,Weather View 32 v60,2013-04-07 02:38:00,
2013-04-06 19:40:00,54.3,49.6,30.09,ESE,121,6.0,15.0,84,0.00,,,-99.99,Weather View 32 v60,2013-04-07 02:40:00,
2013-04-06 19:43:00,57.1,49.9,30.08,ESE,116,9.0,14.0,77,0.00,,,-99.99,Weather View 32 v60,2013-04-07 02:43:00,
2013-04-06 19:50:00,54.0,49.6,30.09,SE,136,4.0,15.0,85,0.00,,,-99.99,Weather View 32 v60,2013-04-07 02:50:00,
2013-04-06 19:53:00,56.6,50.1,30.07,SSE,157,7.0,14.0,79,0.00,,,-99.99,Weather View 32 v60,2013-04-07 02:53:00,
2013-04-06 20:00:00,53.7,49.3,30.09,SE,124,10.0,15.0,85,0.00,,,-99.99,Weather View 32 v60,2013-04-07 03:00:00,
2013-04-06 20:05:00,53.5,49.1,30.10,SE,139,6.0,15.0,85,0.00,,,-99.99,Weather View 32 v60,2013-04-07 03:05:00,
2013-04-06 20:15:00,53.3,49.2,30.10,SE,142,6.0,15.0,86,0.00,,,-99.99,Weather View 32 v60,2013-04-07 03:15:00,
2013-04-06 20:18:00,55.3,49.9,30.08,SE,143,11.0,14.0,82,0.00,,,-99.99,Weather View 32 v60,2013-04-07 03:18:00,
2013-04-06 20:20:00,53.3,49.2,30.10,ESE,112,4.0,15.0,86,0.00,,,-99.99,Weather View 32 v60,2013-04-07 03:20:00,
2013-04-06 20:25:00,53.2,49.1,30.10,SSE,152,8.0,15.0,86,0.00,,,-99.99,Weather View 32 v60,2013-04-07 03:25:00,
2013-04-06 20:28:00,54.8,49.7,30.09,ESE,114,5.0,14.0,83,0.00,,,-99.99,Weather View 32 v60,2013-04-07 03:28:00,
2013-04-06 20:30:00,53.2,49.1,30.10,SE,129,5.0,12.0,86,0.00,,,-99.99,Weather View 32 v60,2013-04-07 03:30:00,
2013-04-06 20:33:00,54.6,49.5,30.08,ESE,122,6.0,15.0,83,0.00,,,-99.99,Weather View 32 v60,2013-04-07 03:33:00,
2013-04-06 20:35:00,53.2,49.1,30.10,SE,128,7.0,12.0,86,0.00,,,-99.99,Weather View 32 v60,2013-04-07 03:35:00,
2013-04-06 20:40:00,53.1,49.0,30.10,SE,132,5.0,12.0,86,0.00,,,-99.99,Weather View 32 v60,2013-04-07 03:40:00,
2013-04-06 20:45:00,53.2,49.1,30.10,SE,135,4.0,12.0,86,0.00,,,-99.99,Weather View 32 v60,2013-04-07 03:45:00,
2013-04-06 20:48:00,54.1,49.4,30.09,SE,137,6.0,15.0,84,0.00,,,-99.99,Weather View 32 v60,2013-04-07 03:48:00,
2013-04-06 20:50:00,53.3,49.2,30.11,SSE,153,5.0,12.0,86,0.00,,,-99.99,Weather View 32 v60,2013-04-07 03:50:00,
2013-04-06 20:55:00,53.3,49.2,30.11,SE,134,5.0,12.0,86,0.00,,,-99.99,Weather View 32 v60,2013-04-07 03:55:00,
2013-04-06 20:58:00,53.8,49.4,30.09,SE,135,5.0,15.0,85,0.00,,,-99.99,Weather View 32 v60,2013-04-07 03:58:00,
2013-04-06 21:00:00,53.3,49.2,30.11,SE,137,4.0,12.0,86,0.00,,,-99.99,Weather View 32 v60,2013-04-07 04:00:00,
2013-04-06 21:05:00,53.5,49.4,30.11,SE,142,3.0,12.0,86,0.00,,,-99.99,Weather View 32 v60,2013-04-07 04:05:00,
2013-04-06 21:10:00,53.5,49.4,30.11,ESE,121,8.0,12.0,86,0.00,,,-99.99,Weather View 32 v60,2013-04-07 04:10:00,
2013-04-06 21:15:00,53.5,49.4,30.12,ESE,122,4.0,12.0,86,0.00,,,-99.99,Weather View 32 v60,2013-04-07 04:15:00,
2013-04-06 21:20:00,53.5,49.4,30.12,SE,127,3.0,12.0,86,0.00,,,-99.99,Weather View 32 v60,2013-04-07 04:20:00,
2013-04-06 21:25:00,53.5,49.4,30.12,SE,128,6.0,12.0,86,0.00,,,-99.99,Weather View 32 v60,2013-04-07 04:25:00,
2013-04-06 21:30:00,53.5,49.4,30.12,SE,137,3.0,12.0,86,0.00,,,-99.99,Weather View 32 v60,2013-04-07 04:30:00,
2013-04-06 21:35:00,53.5,49.4,30.12,SE,127,4.0,12.0,86,0.00,,,-99.99,Weather View 32 v60,2013-04-07 04:35:00,
2013-04-06 21:40:00,53.5,49.4,30.11,East,97,4.0,11.0,86,0.00,,,-99.99,Weather View 32 v60,2013-04-07 04:40:00,
2013-04-06 21:45:00,53.5,49.4,30.11,SE,140,6.0,11.0,86,0.00,,,-99.99,Weather View 32 v60,2013-04-07 04:45:00,
2013-04-06 21:50:00,53.5,49.4,30.11,ESE,109,4.0,11.0,86,0.00,,,-99.99,Weather View 32 v60,2013-04-07 04:50:00,
2013-04-06 21:55:00,53.5,49.4,30.11,SE,143,5.0,11.0,86,0.00,,,-99.99,Weather View 32 v60,2013-04-07 04:55:00,
2013-04-06 22:00:00,53.5,49.4,30.12,SSE,152,4.0,10.0,86,0.00,,,-99.99,Weather View 32 v60,2013-04-07 05:00:00,
2013-04-06 22:05:00,53.6,49.5,30.12,SE,144,5.0,10.0,86,0.00,,,-99.99,Weather View 32 v60,2013-04-07 05:05:00,
2013-04-06 22:10:00,53.6,49.5,30.12,ESE,111,4.0,10.0,86,0.00,,,-99.99,Weather View 32 v60,2013-04-07 05:10:00,
2013-04-06 22:15:00,53.5,49.4,30.12,SSE,164,8.0,10.0,86,0.00,,,-99.99,Weather View 32 v60,2013-04-07 05:15:00,
2013-04-06 22:20:00,53.6,49.5,30.12,SSE,165,3.0,10.0,86,0.00,,,-99.99,Weather View 32 v60,2013-04-07 05:20:00,
2013-04-06 22:25:00,53.6,49.5,30.12,SE,135,3.0,10.0,86,0.00,,,-99.99,Weather View 32 v60,2013-04-07 05:25:00,
2013-04-06 22:30:00,53.6,49.5,30.13,SE,141,5.0,10.0,86,0.00,,,-99.99,Weather View 32 v60,2013-04-07 05:30:00,
2013-04-06 22:35:00,53.6,49.5,30.13,SSW,206,5.0,10.0,86,0.00,,,-99.99,Weather View 32 v60,2013-04-07 05:35:00,
2013-04-06 22:45:00,53.7,49.6,30.13,ESE,115,3.0,10.0,86,0.00,,,-99.99,Weather View 32 v60,2013-04-07 05:45:00,
2013-04-06 22:50:00,53.7,49.3,30.13,SE,128,2.0,10.0,85,0.00,,,-99.99,Weather View 32 v60,2013-04-07 05:50:00,
2013-04-06 22:55:00,53.7,49.6,30.13,SE,143,3.0,8.0,86,0.00,,,-99.99,Weather View 32 v60,2013-04-07 05:55:00,
2013-04-06 23:00:00,53.6,49.5,30.13,ESE,104,2.0,8.0,86,0.00,,,-99.99,Weather View 32 v60,2013-04-07 06:00:00,
2013-04-06 23:05:00,53.6,49.5,30.12,ESE,123,4.0,8.0,86,0.00,,,-99.99,Weather View 32 v60,2013-04-07 06:05:00,
2013-04-06 23:10:00,53.6,49.5,30.12,ESE,108,4.0,8.0,86,0.00,,,-99.99,Weather View 32 v60,2013-04-07 06:10:00,
2013-04-06 23:15:00,53.5,49.4,30.12,ESE,116,4.0,8.0,86,0.00,,,-99.99,Weather View 32 v60,2013-04-07 06:15:00,
2013-04-06 23:20:00,53.5,49.4,30.12,SE,139,5.0,7.0,86,0.00,,,-99.99,Weather View 32 v60,2013-04-07 06:20:00,
2013-04-06 23:25:00,53.4,49.3,30.11,SE,124,7.0,7.0,86,0.00,,,-99.99,Weather View 32 v60,2013-04-07 06:25:00,
2013-04-06 23:30:00,53.4,49.3,30.11,SSE,156,5.0,8.0,86,0.00,,,-99.99,Weather View 32 v60,2013-04-07 06:30:00,
2013-04-06 23:35:00,53.5,49.4,30.12,SSE,151,5.0,8.0,86,0.00,,,-99.99,Weather View 32 v60,2013-04-07 06:35:00,
2013-04-06 23:40:00,53.6,49.5,30.12,SE,139,4.0,8.0,86,0.00,,,-99.99,Weather View 32 v60,2013-04-07 06:40:00,
2013-04-06 23:45:00,53.7,49.6,30.12,SE,136,5.0,8.0,86,0.00,,,-99.99,Weather View 32 v60,2013-04-07 06:45:00,
2013-04-06 23:50:00,53.8,49.4,30.12,SE,125,2.0,8.0,85,0.00,,,-99.99,Weather View 32 v60,2013-04-07 06:50:00,
2013-04-06 23:55:00,53.9,49.5,30.13,SSW,209,2.0,8.0,85,0.00,,,-99.99,Weather View 32 v60,2013-04-07 06:55:00,